EUTELSAT 21B

Last updated on Tue Jul 01 2025 00:02:46 GMT+0000 (Coordinated Universal Time)

1 38992U 12062B 25181.57214291 .00000129 00000+0 00000+0 0 9990 2 38992 0.0648 2.1485 0002764 100.8538 43.4437 1.00269755 46308
UTC large
Height (km)
Speed (km/s)
/
Latitude / Longitude
Inclination (degrees)
Orbital Period (minutes)
Azimuth
Elevation
Range (km)
Doppler Factor

Next 0 passes for location: London (51.5072 / 0.1276)

Sorry there are no passes over London.